This demonstration page uses our WeatherBlox Daily Observations layout. Learn more.

Left ArrowRight Arrow

Hourly Observations for June 27, 2017

Temp ( °F °C ) Dew Point ( °F °C ) Humidity (%) Winds ( mph kmh ) Pressure ( in mb ) Visibility ( mi km ) Precip ( " mm )
12:10 am 00:10 Cloudy with Light Rain 62 16.7 62 16.7 100 100 S 8 13 30.15 1021 7 11 0.05 1.27
12:52 am 00:52 Cloudy with Light Rain 63 17.2 62 16.7 97 97 S 8 13 30.12 1020 8 13 0.10 2.54
1:52 am 01:52 Cloudy 61 16.1 60 15.6 97 97 SSE 6 9 30.09 1019 10 16 0.03 0.76
2:10 am 02:10 Cloudy 61 16.1 60 15.6 97 97 S 6 9 30.12 1020 10 16 0.00 0.00
2:52 am 02:52 Cloudy 61 16.1 60 15.6 97 97 SE 6 9 30.09 1019 10 16 0.00 0.00
3:52 am 03:52 Clear 60 15.6 59 15 96 96 E 6 9 30.09 1019 10 16 0.00 0.00
4:52 am 04:52 Clear 59 15 58 14.4 96 96 ESE 5 7 30.10 1019 10 16 0.00 0.00
5:52 am 05:52 Mostly Clear 59 15 58 14.4 96 96 ESE 6 9 30.10 1019 10 16 0.00 0.00
6:52 am 06:52 Partly Cloudy 60 15.6 59 15 96 96 ESE 6 9 30.11 1020 10 16 0.00 0.00
7:52 am 07:52 Mostly Cloudy 62 16.7 60 15.6 93 93 SE 8 13 30.11 1020 10 16 0.00 0.00
8:52 am 08:52 Sunny 66 18.9 61 16.1 84 84 SSE 13 20 30.11 1020 10 16 0.00 0.00
9:52 am 09:52 Sunny 70 21.1 62 16.7 76 76 SE 14 22 30.09 1019 10 16 0.00 0.00
10:52 am 10:52 Sunny 72 22.2 63 17.2 73 73 S 12 19 30.09 1019 10 16 0.00 0.00
11:52 am 11:52 Sunny 75 23.9 64 17.8 69 69 SSE 7 11 30.08 1019 10 16 0.00 0.00
12:52 pm 12:52 Sunny 77 25 65 18.3 66 66 SSE 8 13 30.06 1018 10 16 0.00 0.00
1:52 pm 13:52 Partly Cloudy 78 25.6 64 17.8 62 62 SE 6 9 30.04 1017 10 16 0.00 0.00
2:52 pm 14:52 Partly Cloudy 80 26.7 64 17.8 58 58 S 8 13 30.02 1017 10 16 0.00 0.00
3:52 pm 15:52 Mostly Sunny 81 27.2 65 18.3 58 58 S 12 19 30.01 1016 10 16 0.00 0.00
4:52 pm 16:52 Sunny 81 27.2 65 18.3 58 58 S 8 13 29.99 1016 10 16 0.00 0.00
5:52 pm 17:52 Mostly Sunny 81 27.2 63 17.2 54 54 SSE 13 20 29.97 1015 10 16 0.00 0.00
6:52 pm 18:52 Sunny 79 26.1 63 17.2 58 58 S 13 20 29.96 1015 10 16 0.00 0.00
7:52 pm 19:52 Sunny 78 25.6 63 17.2 60 60 SSE 13 20 29.96 1014 10 16 0.00 0.00
8:52 pm 20:52 Clear 75 23.9 64 17.8 69 69 SSE 10 17 29.95 1014 10 16 0.00 0.00
9:52 pm 21:52 Clear 74 23.3 64 17.8 71 71 SSE 13 20 29.96 1015 10 16 0.00 0.00
10:52 pm 22:52 Clear 73 22.8 64 17.8 74 74 SSE 13 20 29.96 1015 10 16 0.00 0.00
11:52 pm 23:52 Clear 71 21.7 64 17.8 79 79 SSE 13 20 29.98 1015 10 16 0.00 0.00

Powered by AerisWeather